Hourly Data Report for May 31, 2021

VINELAND STATION RCS
ONTARIO
Current Station Operator: ECCC - MSC

43°11'00.000" N
79°24'00.000" W
79.20 m
6139148
71171
XVN

Download Data

Hourly Data (May 2021)
Hourly Data Report for May 31, 2021
TIME
LST
Temp Definition
°C
Dew Point Definition
°C
Rel Hum Definition
%
Precip. Amount Definition
mm

Wind Dir Definition
10's deg

Wind Spd Definition
km/h
Visibility Definition
km
Stn Press Definition
kPa
Hmdx Definition


Wind Chill Definition


Weather Definition


00:00 7.3 5.2 87 0.0 18 5   101.44     LegendNANA
01:00 6.8 4.6 86 0.0 15 5   101.39     LegendNANA
02:00 6.7 4.0 83 0.0 16 5   101.35     LegendNANA
03:00 6.7 3.5 80 0.0 22 5   101.40     LegendNANA
04:00 6.4 3.1 80 0.0 18 5   101.43     LegendNANA
05:00 6.8 3.5 80 0.0 20 9   101.48     LegendNANA
06:00 9.2 4.8 74 0.0 23 10   101.52     LegendNANA
07:00 11.9 5.3 64 0.0 27 10   101.58     LegendNANA
08:00 13.7 4.4 53 0.0 29 10   101.60     LegendNANA
09:00 16.5 4.2 44 0.0 29 7   101.60     LegendNANA
10:00 17.9 4.1 40 0.0 1 7   101.56     LegendNANA
11:00 18.3 4.7 41 0.0 5 5   101.55     LegendNANA
12:00 19.5 3.9 35 0.0 5 6   101.49     LegendNANA
13:00 20.1 2.1 30 0.0 5 8   101.43     LegendNANA
14:00 22.0 6.4 37 0.0 21 8   101.35     LegendNANA
15:00 21.8 6.1 36 0.0 20 23   101.33     LegendNANA
16:00 20.5 4.2 34 0.0 20 23   101.32     LegendNANA
17:00 19.7 4.1 36 0.0 21 24   101.29     LegendNANA
18:00 19.2 3.9 36 0.0 21 23   101.26     LegendNANA
19:00 18.3 4.1 39 0.0 21 20   101.25     LegendNANA
20:00 17.1 4.0 42 0.0 21 17   101.27     LegendNANA
21:00 17.2 4.3 42 0.0 22 16   101.31     LegendNANA
22:00 16.0 5.0 48 0.0 22 14   101.32     LegendNANA
23:00 15.6 5.5 51 0.0 23 16   101.29     LegendNANA

Notes on Data Quality.

Legend

  • E = Estimated
  • M = Missing
  • NA = Not Available*
  • [empty] = Indicates an unobserved value
Date modified: